Regional Weather Roundup
Issued by NWS

Home | Current Version | Previous Version | Graphics & Text | Print | Product List | Glossary Off
Versions: 1 2 3 4 5 6 7 8 9 10 11 12 13 14 15 16 17 18 19 20 21 22 23 24 25 26 27 28 29 30 31 32 33 34 35 36 37 38 39 40 41 42 43 44 45 46 47 48 49 50

000
ASUS43 KLOT 181900
RWRIL

ILLINOIS REGIONAL WEATHER ROUNDUP
NATIONAL WEATHER SERVICE CHICAGO/ROMEOVILLE IL
100 PM CST THU DEC 18 2014

NOTE: "FAIR" INDICATES FEW OR NO CLOUDS BELOW 12,000 FEET WITH NO
SIGNIFICANT WEATHER AND/OR OBSTRUCTIONS TO VISIBILITY.

* THESE STATIONS ARE NOT UNDER NWS QUALITY CONTROL. THEY ALSO MAY NOT
  REPORT WEATHER SUCH AS PRECIPITATION OR FOG.

ILZ001-002-007-009-015-016-024-182000-
NORTHWEST ILLINOIS

CITY           SKY/WX    TMP DP  RH WIND       PRES   REMARKS
MOLINE         PTSUNNY   28  17  63 N5        30.26F WCI  23
STERLING*      PTSUNNY   27  18  69 NW3       30.26F
$$

ILZ003-004-008-010-011-017-018-182000-
NORTH CENTRAL ILLINOIS

CITY           SKY/WX    TMP DP  RH WIND       PRES   REMARKS
ROCKFORD       CLOUDY    28  17  63 N5        30.26F WCI  23
$$

ILZ005-006-012>014-019>023-182000-
NORTHEAST ILLINOIS

CITY           SKY/WX    TMP DP  RH WIND       PRES   REMARKS
CHICAGO-OHARE  CLOUDY    27  18  69 NW7       30.22F WCI  19
CHICAGO-MIDWAY CLOUDY    28  18  66 SW7       30.24F WCI  21
AURORA         PTSUNNY   25  16  68 CALM      30.25F
WAUKEGAN       CLOUDY    27  19  72 W5        30.22F WCI  22
DUPAGE AIRPORT CLOUDY    29  18  63 CALM      30.23F
WHEELING       CLOUDY    26  17  68 W6        30.25F WCI  19
NORTHERLY ISL    N/A     28  18  66 S6          N/A  WCI  22
$$

LMZ740>746-182000-
SOUTHERN LAKE MICHIGAN

STATION/POSITION SKY/WX   TEMP    WIND        PRES    VSBY  WAVE
                          AIR SEA DIR/SP/G                  HT/PER
                          (F)     (DEG/KT/KT) (MB)    (MI)  (FT/S)
WAUKEGAN HARBOR            26     280/  2/  8   N/A
HARRISON CRIB              26     240/  7/ 10   N/A
BURNHAM HARBOR             28     190/  5/  8   N/A
CALUMET HARBOR             26     220/  4/  6 1023.1F
$$

ILZ025>027-034>036-040-047-049-050-058-095>099-182000-
WEST-CENTRAL ILLINOIS

CITY           SKY/WX    TMP DP  RH WIND       PRES   REMARKS
QUINCY         CLOUDY    29  24  82 CALM      30.24F
$$

ILZ028>032-037-038-041>044-048-051>054-059>061-182000-
CENTRAL ILLINOIS

CITY           SKY/WX    TMP DP  RH WIND       PRES   REMARKS
DECATUR        CLOUDY    28  23  81 CALM      30.25F HAZE
PEORIA         CLOUDY    28  19  69 CALM      30.26F
SPRINGFIELD    CLOUDY    30  24  78 W3        30.26F
TAYLORVILLE    NOT AVBL
$$

ILZ033-039-045-046-055>057-062-063-182000-
EAST-CENTRAL ILLINOIS

CITY           SKY/WX    TMP DP  RH WIND       PRES   REMARKS
CHAMPAIGN      CLOUDY    28  22  78 SW3       30.24F
MATTOON        CLOUDY    29  21  72 CALM      30.23F
$$

ILZ079-100>102-182000-
SOUTHWEST ILLINOIS

CITY           SKY/WX    TMP DP  RH WIND       PRES   REMARKS
ALTON          CLOUDY    32  25  74 VRB5      30.25F WCI  27
BELLEVILLE     PTSUNNY   33  28  81 E5        30.24F WCI  28
CAHOKIA*       CLOUDY    34  29  82 CALM      30.25F HAZE
$$

ILZ064>066-069>071-074>076-080>082-084>086-088>090-092>094-182000-
SOUTH-CENTRAL ILLINOIS

CITY           SKY/WX    TMP DP  RH WIND       PRES   REMARKS
CARBONDALE     CLOUDY    33  30  88 SE3       30.24F
MARION         CLOUDY    34  32  93 E5        30.26F FOG     WCI  30
MT. VERNON     CLOUDY    34  23  64 CALM      30.25F
$$

ILZ067-068-072-073-078-083-087-091-182000-
SOUTHEAST ILLINOIS

CITY           SKY/WX    TMP DP  RH WIND       PRES   REMARKS
LAWRENCEVILLE  CLOUDY    31  23  72 NW5       30.26F WCI  26
$$

ABBREVIATIONS USED IN REMARKS
   TC - TEMPERATURE IN CELSIUS
  WCI - WIND CHILL INDEX
   HX - HEAT INDEX
  VSB - VISIBILITY
$$




USA.gov is the U.S. government's official web portal to all federal, state and local government web resources and services.